AD8BW Weather Reports


Display with metric or nautical units.
time (UTC)temp
F
wind
direction
speed
MPH
gust
MPH
rain 1hr
in
rain 24hr
in
rain mn
in
humidity
%
barometer
mb
20260901040424 74 213 2.0 9.0 0.00 0.01 0.00 87 1014.1
20260901035423 74 178 0.0 5.0 0.00 0.01 0.01 86 1014.1
20260901034427 74 183 2.0 9.0 0.00 0.01 0.01 86 1014.1
20260901033423 74 200 4.0 9.0 0.00 0.01 0.01 85 1014.1
20260901032421 73 212 4.0 11.0 0.00 0.01 0.01 85 1014.2
20260901031423 73 181 4.0 12.0 0.00 0.01 0.01 85 1014.2
20260901030421 73 184 2.0 7.0 0.00 0.01 0.01 85 1014.2
20260901025422 73 219 2.0 5.0 0.00 0.01 0.01 84 1014.2
20260901024422 73 215 2.0 7.0 0.00 0.01 0.01 85 1014.2
20260901023425 73 201 2.0 5.0 0.00 0.01 0.01 85 1014.1
20260901022417 73 195 2.0 5.0 0.00 0.01 0.01 85 1014.2
20260901021417 73 187 2.0 7.0 0.00 0.01 0.01 85 1014.2
20260901020413 72 194 4.0 9.0 0.00 0.01 0.01 86 1014.3
20260901015413 72 191 4.0 9.0 0.00 0.01 0.01 87 1014.4
20260901014413 72 181 4.0 11.0 0.00 0.01 0.01 87 1014.4
20260901013414 73 164 4.0 9.0 0.00 0.01 0.01 88 1014.1
20260901012417 73 182 2.0 7.0 0.00 0.01 0.01 88 1014.2
20260901011409 73 194 2.0 7.0 0.00 0.01 0.01 88 1014.0
20260901010411 73 209 2.0 5.0 0.00 0.01 0.01 88 1013.9
20260901005409 73 198 0.0 5.0 0.00 0.01 0.01 88 1013.7
20260901004412 73 202 0.0 4.0 0.00 0.01 0.01 87 1013.6
20260901003411 74 174 2.0 5.0 0.00 0.01 0.01 87 1013.4
20260901002409 74 174 2.0 7.0 0.00 0.01 0.01 87 1013.4
20260901001408 74 168 2.0 5.0 0.00 0.01 0.01 87 1013.4
20260901000413 74 174 2.0 5.0 0.00 0.01 0.01 86 1013.6
20260831235412 74 157 2.0 5.0 0.00 0.01 0.01 86 1013.6
20260831234417 74 175 2.0 5.0 0.00 0.01 0.01 86 1013.6
20260831233404 75 146 2.0 7.0 0.00 0.01 0.01 86 1013.7
20260831232405 75 162 4.0 7.0 0.00 0.01 0.01 87 1013.7
20260831231405 75 200 4.0 9.0 0.00 0.01 0.01 87 1013.9
20260831230404 75 209 2.0 5.0 0.00 0.01 0.01 87 1013.9
20260831225403 75 239 2.0 5.0 0.00 0.01 0.01 87 1014.1
20260831224402 75 225 4.0 7.0 0.00 0.01 0.01 87 1014.2
20260831223403 74 183 4.0 11.0 0.00 0.01 0.01 88 1014.4
20260831222402 75 229 4.0 11.0 0.00 0.01 0.01 88 1014.5
20260831221404 75 192 2.0 9.0 0.00 0.01 0.01 89 1014.6
20260831220359 74 161 4.0 9.0 0.00 0.01 0.01 89 1014.7
20260831215357 74 172 2.0 9.0 0.00 0.01 0.01 89 1015.0
20260831214358 74 184 4.0 9.0 0.00 0.01 0.01 89 1014.5
20260831213355 74 159 4.0 7.0 0.00 0.01 0.01 90 1014.6
20260831212355 74 159 4.0 9.0 0.00 0.01 0.01 90 1014.7
20260831211356 74 185 2.0 7.0 0.00 0.01 0.01 90 1015.1
20260831210356 74 161 4.0 9.0 0.00 0.01 0.01 90 1014.9
20260831205354 74 191 4.0 7.0 0.00 0.01 0.01 90 1014.8
20260831204407 74 166 4.0 11.0 0.00 0.01 0.01 90 1014.9
20260831203356 74 169 4.0 9.0 0.00 0.01 0.01 90 1015.1
20260831202353 73 139 4.0 9.0 0.00 0.01 0.01 91 1015.1
20260831201355 73 138 4.0 7.0 0.00 0.01 0.01 91 1015.5
20260831200354 73 130 2.0 7.0 0.00 0.01 0.01 92 1015.5
20260831195354 73 142 2.0 7.0 0.01 0.01 0.01 92 1015.7
20260831194352 73 55 0.0 5.0 0.01 0.01 0.01 93 1015.8
20260831193356 73 50 0.0 4.0 0.01 0.01 0.01 93 1016.1
20260831192353 73 42 0.0 4.0 0.01 0.01 0.01 92 1016.4
20260831191351 73 41 0.0 5.0 0.01 0.01 0.01 92 1016.7
20260831190352 73 40 0.0 4.0 0.01 0.01 0.01 91 1016.5
20260831185351 73 31 0.0 0.0 0.00 0.00 0.00 91 1016.6
20260831184352 73 19 0.0 5.0 0.00 0.00 0.00 91 1016.7
20260831183351 74 19 2.0 5.0 0.00 0.00 0.00 90 1016.9
20260831182352 74 0 0.0 2.0 0.00 0.00 0.00 90 1017.0
20260831181353 73 146 0.0 2.0 0.00 0.00 0.00 89 1016.1
20260831180348 73 146 2.0 5.0 0.00 0.00 0.00 89 1015.9
20260831175350 73 157 2.0 5.0 0.00 0.00 0.00 89 1015.9
20260831174350 73 185 2.0 5.0 0.00 0.00 0.00 91 1016.0
20260831173350 73 160 0.0 4.0 0.00 0.00 0.00 90 1016.3
20260831172350 73 315 0.0 0.0 0.00 0.00 0.00 88 1016.2
20260831171350 73 315 0.0 0.0 0.00 0.00 0.00 88 1016.5
20260831170346 74 315 0.0 2.0 0.00 0.01 0.00 87 1016.5
20260831165347 74 315 0.0 0.0 0.00 0.01 0.00 85 1016.3
20260831164345 74 315 0.0 0.0 0.00 0.01 0.00 85 1016.6
20260831163345 74 315 0.0 5.0 0.00 0.02 0.00 84 1017.3
20260831162344 75 315 2.0 5.0 0.00 0.03 0.00 83 1017.9
20260831161342 75 315 2.0 7.0 0.00 0.07 0.00 84 1018.0
20260831160344 75 321 2.0 7.0 0.00 0.15 0.00 84 1018.0
20260831155342 74 322 0.0 5.0 0.00 0.18 0.00 85 1017.8
20260831154339 74 318 0.0 4.0 0.00 0.20 0.00 87 1017.5
20260831153340 73 178 0.0 2.0 0.00 0.23 0.00 88 1017.4
20260831152340 73 257 0.0 4.0 0.00 0.25 0.00 89 1017.3
20260831151340 73 177 0.0 2.0 0.00 0.26 0.00 90 1017.2
20260831150336 72 177 2.0 7.0 0.00 0.29 0.00 91 1017.0
20260831145343 72 181 0.0 4.0 0.00 0.30 0.00 92 1016.9
20260831144334 72 226 0.0 2.0 0.00 0.32 0.00 92 1016.7
20260831143332 72 211 0.0 5.0 0.00 0.34 0.00 93 1016.5
20260831142332 71 192 0.0 4.0 0.00 0.36 0.00 93 1016.5
20260831141333 71 192 0.0 4.0 0.00 0.40 0.00 93 1016.6
20260831140334 71 148 0.0 0.0 0.00 0.44 0.00 93 1016.6
20260831135330 71 198 0.0 0.0 0.00 0.50 0.00 93 1016.5
20260831134333 70 198 0.0 0.0 0.00 0.55 0.00 93 1016.5
20260831133330 70 198 0.0 0.0 0.00 0.60 0.00 93 1016.3
20260831132331 70 198 0.0 0.0 0.00 0.66 0.00 93 1016.4
20260831131326 70 198 0.0 0.0 0.00 0.73 0.00 93 1016.5
20260831130327 70 198 0.0 0.0 0.00 0.78 0.00 93 1016.3
20260831125326 70 192 0.0 2.0 0.00 0.82 0.00 93 1016.1
20260831124326 70 188 0.0 4.0 0.00 0.84 0.00 93 1016.2
20260831123325 69 180 0.0 0.0 0.00 0.87 0.00 93 1016.2
20260831122326 69 180 0.0 0.0 0.00 0.90 0.00 93 1016.2
20260831121325 69 180 0.0 0.0 0.00 0.93 0.00 93 1016.2
20260831120326 69 180 0.0 0.0 0.00 0.95 0.00 93 1016.2
20260831115326 69 180 0.0 0.0 0.00 0.96 0.00 92 1016.2
20260831114323 69 180 0.0 0.0 0.00 0.96 0.00 92 1016.3
20260831113322 69 180 0.0 0.0 0.00 0.96 0.00 92 1016.4
20260831112322 69 180 0.0 0.0 0.00 0.97 0.00 92 1016.4
20260831111322 69 180 0.0 0.0 0.00 0.97 0.00 92 1016.4
20260831110323 69 180 0.0 0.0 0.00 0.97 0.00 92 1016.5
20260831105321 69 180 0.0 0.0 0.00 0.97 0.00 92 1016.4
20260831104324 69 180 0.0 0.0 0.00 0.97 0.00 92 1016.3
20260831103325 69 180 0.0 0.0 0.00 0.97 0.00 92 1016.3
20260831102323 69 180 0.0 0.0 0.00 0.97 0.00 92 1016.2
20260831101326 69 180 0.0 0.0 0.00 0.97 0.00 92 1016.2
20260831100323 69 180 0.0 2.0 0.00 0.97 0.00 92 1016.2
20260831095320 69 180 0.0 0.0 0.00 0.97 0.00 92 1016.1
20260831094321 69 180 0.0 0.0 0.00 0.98 0.00 92 1016.0
20260831093315 69 180 0.0 0.0 0.00 0.99 0.00 92 1016.2
20260831092316 69 180 0.0 0.0 0.00 0.99 0.00 92 1016.1
20260831091316 69 180 0.0 0.0 0.00 0.99 0.00 92 1016.2
20260831090316 69 180 0.0 2.0 0.00 0.99 0.00 92 1016.2
20260831085317 69 180 0.0 4.0 0.00 0.99 0.00 91 1016.2
20260831084314 69 184 0.0 4.0 0.00 1.00 0.00 91 1016.1
20260831083319 69 180 0.0 2.0 0.00 1.01 0.00 91 1016.2
20260831082316 69 180 0.0 0.0 0.00 1.01 0.00 90 1015.9
20260831081318 69 180 0.0 0.0 0.00 1.01 0.00 90 1015.9
20260831080313 69 180 0.0 0.0 0.00 1.01 0.00 90 1015.9
20260831075315 69 180 0.0 0.0 0.00 1.01 0.00 90 1016.1
20260831074313 69 180 0.0 0.0 0.00 1.01 0.00 90 1016.0
20260831073323 69 180 0.0 0.0 0.00 1.01 0.00 90 1016.1
20260831072319 69 180 0.0 2.0 0.00 1.01 0.00 89 1016.1
20260831071312 70 180 0.0 2.0 0.00 1.01 0.00 89 1016.1
20260831070312 70 180 0.0 0.0 0.00 1.01 0.00 89 1016.3
20260831065310 70 180 0.0 0.0 0.00 1.01 0.00 89 1016.4
20260831064809 70 180 0.0 0.0 0.00 1.01 0.00 89 1016.5
20260831063308 70 180 0.0 2.0 0.00 1.01 0.00 89 1016.5
20260831062308 70 180 0.0 2.0 0.00 1.01 0.00 89 1016.5
20260831061311 70 180 0.0 2.0 0.00 1.01 0.00 89 1016.5
20260831060311 70 180 0.0 0.0 0.00 1.01 0.00 89 1016.6
20260831055308 70 180 0.0 2.0 0.00 1.01 0.00 89 1016.6
20260831054309 70 180 0.0 5.0 0.00 1.01 0.00 89 1016.6
20260831053311 70 185 0.0 4.0 0.00 1.01 0.00 89 1016.7
20260831052307 70 184 0.0 7.0 0.00 1.01 0.00 90 1016.6
20260831051308 70 188 2.0 5.0 0.00 1.01 0.00 90 1016.7
20260831050307 70 188 2.0 4.0 0.00 1.01 0.00 90 1016.8
20260831045306 70 188 2.0 7.0 0.00 1.01 0.00 90 1016.8
20260831044309 70 184 2.0 7.0 0.00 1.01 0.00 91 1016.8
20260831043306 70 182 4.0 9.0 0.00 1.01 0.00 91 1016.8
20260831042309 70 163 4.0 11.0 0.00 1.01 0.00 91 1016.7
20260831041309 70 175 2.0 7.0 0.00 1.01 0.00 91 1016.7